| time (UTC) | temp F | wind direction | speed MPH | gust MPH | rain 1hr in | rain 24hr in | rain mn in | humidity % | barometer mb |
| 20260509150303 | 52 | 57 | 5.0 | 12.0 | 0.00 | 0.04 | 0.00 | 76 | 1009.0 |
| 20260509145805 | 52 | 92 | 7.0 | 12.0 | 0.00 | 0.04 | 0.00 | 76 | 1008.9 |
| 20260509145306 | 53 | 77 | 6.0 | 9.0 | 0.00 | 0.04 | 0.00 | 75 | 1008.9 |
| 20260509143803 | 52 | 65 | 9.0 | 14.0 | 0.00 | 0.04 | 0.00 | 76 | 1009.0 |
| 20260509143303 | 52 | 73 | 4.0 | 9.0 | 0.00 | 0.04 | 0.00 | 75 | 1009.0 |
| 20260509142804 | 52 | 115 | 7.0 | 12.0 | 0.00 | 0.04 | 0.00 | 75 | 1009.2 |
| 20260509142306 | 52 | 108 | 4.0 | 9.0 | 0.00 | 0.05 | 0.00 | 75 | 1009.2 |
| 20260509140803 | 51 | 123 | 3.0 | 8.0 | 0.00 | 0.05 | 0.00 | 75 | 1009.0 |
| 20260509140304 | 50 | 103 | 4.0 | 9.0 | 0.00 | 0.05 | 0.00 | 76 | 1009.2 |
| 20260509135805 | 50 | 114 | 3.0 | 9.0 | 0.00 | 0.06 | 0.00 | 75 | 1009.1 |
| 20260509135306 | 50 | 114 | 3.0 | 10.0 | 0.00 | 0.08 | 0.00 | 76 | 1009.3 |
| 20260509134804 | 49 | 103 | 6.0 | 13.0 | 0.00 | 0.08 | 0.00 | 76 | 1009.2 |
| 20260509134304 | 49 | 65 | 7.0 | 8.0 | 0.00 | 0.08 | 0.00 | 75 | 1009.3 |
| 20260509133805 | 49 | 65 | 3.0 | 10.0 | 0.00 | 0.09 | 0.00 | 76 | 1009.3 |
| 20260509133304 | 48 | 60 | 7.0 | 10.0 | 0.00 | 0.09 | 0.00 | 76 | 1009.5 |
| 20260509132804 | 48 | 81 | 6.0 | 12.0 | 0.00 | 0.09 | 0.00 | 76 | 1009.6 |
| 20260509131804 | 48 | 71 | 4.0 | 8.0 | 0.00 | 0.09 | 0.00 | 76 | 1009.5 |
| 20260509131303 | 48 | 98 | 3.0 | 7.0 | 0.00 | 0.09 | 0.00 | 76 | 1009.6 |
| 20260509125804 | 47 | 66 | 3.0 | 9.0 | 0.00 | 0.09 | 0.00 | 76 | 1009.5 |
| 20260509125307 | 47 | 78 | 6.0 | 7.0 | 0.00 | 0.09 | 0.00 | 77 | 1009.7 |
| 20260509124805 | 46 | 86 | 5.0 | 13.0 | 0.00 | 0.09 | 0.00 | 77 | 1009.7 |
| 20260509124304 | 46 | 117 | 5.0 | 13.0 | 0.00 | 0.09 | 0.00 | 77 | 1009.4 |
| 20260509123804 | 46 | 87 | 5.0 | 13.0 | 0.00 | 0.09 | 0.00 | 77 | 1009.4 |
| 20260509123303 | 46 | 62 | 6.0 | 13.0 | 0.00 | 0.09 | 0.00 | 77 | 1009.7 |
| 20260509122804 | 46 | 77 | 4.0 | 10.0 | 0.00 | 0.09 | 0.00 | 77 | 1009.5 |
| 20260509122306 | 45 | 69 | 7.0 | 9.0 | 0.00 | 0.09 | 0.00 | 77 | 1009.6 |
| 20260509121805 | 45 | 82 | 5.0 | 12.0 | 0.00 | 0.09 | 0.00 | 78 | 1009.7 |
| 20260509121303 | 45 | 110 | 4.0 | 7.0 | 0.00 | 0.09 | 0.00 | 78 | 1009.7 |
| 20260509120804 | 44 | 60 | 3.0 | 7.0 | 0.00 | 0.09 | 0.00 | 78 | 1009.7 |
| 20260509115805 | 44 | 87 | 3.0 | 8.0 | 0.00 | 0.09 | 0.00 | 79 | 1009.9 |
| 20260509115306 | 44 | 67 | 3.0 | 8.0 | 0.00 | 0.09 | 0.00 | 79 | 1009.8 |
| 20260509114803 | 43 | 105 | 3.0 | 7.0 | 0.00 | 0.09 | 0.00 | 79 | 1009.7 |
| 20260509114303 | 43 | 66 | 2.0 | 7.0 | 0.00 | 0.09 | 0.00 | 78 | 1009.8 |
| 20260509113303 | 43 | 102 | 3.0 | 10.0 | 0.00 | 0.09 | 0.00 | 78 | 1009.7 |
| 20260509112803 | 43 | 118 | 6.0 | 12.0 | 0.00 | 0.09 | 0.00 | 78 | 1009.7 |
| 20260509111804 | 43 | 132 | 4.0 | 10.0 | 0.00 | 0.09 | 0.00 | 79 | 1009.7 |
| 20260509111304 | 42 | 94 | 5.0 | 12.0 | 0.00 | 0.09 | 0.00 | 78 | 1009.7 |
| 20260509110805 | 42 | 111 | 4.0 | 9.0 | 0.00 | 0.09 | 0.00 | 79 | 1009.9 |
| 20260509110303 | 42 | 83 | 3.0 | 9.0 | 0.00 | 0.09 | 0.00 | 79 | 1010.1 |
| 20260509105804 | 42 | 123 | 5.0 | 9.0 | 0.00 | 0.09 | 0.00 | 80 | 1010.0 |
| 20260509105306 | 42 | 125 | 7.0 | 9.0 | 0.00 | 0.09 | 0.00 | 80 | 1009.9 |
| 20260509104804 | 42 | 104 | 3.0 | 7.0 | 0.00 | 0.09 | 0.00 | 81 | 1009.7 |
| 20260509103804 | 41 | 83 | 3.0 | 6.0 | 0.00 | 0.09 | 0.00 | 81 | 1009.9 |
| 20260509103304 | 41 | 101 | 3.0 | 7.0 | 0.00 | 0.09 | 0.00 | 82 | 1009.8 |
| 20260509102803 | 41 | 107 | 3.0 | 8.0 | 0.00 | 0.09 | 0.00 | 82 | 1010.0 |
| 20260509102305 | 41 | 108 | 3.0 | 8.0 | 0.00 | 0.09 | 0.00 | 82 | 1009.9 |
| 20260509101804 | 41 | 108 | 3.0 | 8.0 | 0.00 | 0.09 | 0.00 | 82 | 1009.9 |
| 20260509101304 | 41 | 111 | 3.0 | 7.0 | 0.00 | 0.09 | 0.00 | 82 | 1009.9 |
| 20260509100804 | 40 | 87 | 3.0 | 7.0 | 0.00 | 0.09 | 0.00 | 83 | 1009.8 |
| 20260509100305 | 40 | 109 | 3.0 | 6.0 | 0.00 | 0.09 | 0.00 | 83 | 1009.8 |
| 20260509095804 | 40 | 71 | 4.0 | 6.0 | 0.00 | 0.09 | 0.00 | 83 | 1009.7 |
| 20260509094804 | 40 | 81 | 3.0 | 6.0 | 0.00 | 0.09 | 0.00 | 83 | 1009.7 |
| 20260509094303 | 40 | 132 | 3.0 | 6.0 | 0.00 | 0.09 | 0.00 | 83 | 1009.7 |
| 20260509093803 | 40 | 87 | 3.0 | 6.0 | 0.00 | 0.09 | 0.00 | 83 | 1009.7 |
| 20260509093304 | 39 | 82 | 3.0 | 6.0 | 0.00 | 0.09 | 0.00 | 83 | 1009.5 |
| 20260509092804 | 40 | 113 | 3.0 | 7.0 | 0.00 | 0.09 | 0.00 | 83 | 1009.7 |
| 20260509092306 | 40 | 84 | 3.0 | 8.0 | 0.00 | 0.09 | 0.00 | 83 | 1009.8 |
| 20260509091803 | 40 | 113 | 5.0 | 8.0 | 0.00 | 0.09 | 0.00 | 84 | 1009.7 |
| 20260509091303 | 39 | 116 | 5.0 | 8.0 | 0.00 | 0.09 | 0.00 | 84 | 1009.7 |
| 20260509090805 | 39 | 113 | 3.0 | 6.0 | 0.00 | 0.09 | 0.00 | 85 | 1009.7 |
| 20260509090303 | 39 | 91 | 3.0 | 6.0 | 0.00 | 0.09 | 0.00 | 85 | 1009.9 |
| 20260509085306 | 39 | 93 | 3.0 | 6.0 | 0.00 | 0.09 | 0.00 | 86 | 1010.1 |
| 20260509084304 | 39 | 93 | 3.0 | 6.0 | 0.00 | 0.09 | 0.00 | 87 | 1010.2 |
| 20260509082804 | 39 | 74 | 5.0 | 6.0 | 0.00 | 0.09 | 0.00 | 88 | 1010.4 |
| 20260509082307 | 38 | 82 | 3.0 | 5.0 | 0.00 | 0.09 | 0.00 | 88 | 1010.3 |
| 20260509081804 | 38 | 96 | 3.0 | 6.0 | 0.00 | 0.09 | 0.00 | 88 | 1010.3 |
| 20260509080804 | 38 | 78 | 3.0 | 5.0 | 0.00 | 0.09 | 0.00 | 87 | 1010.5 |
| 20260509075805 | 38 | 91 | 2.0 | 5.0 | 0.00 | 0.09 | 0.00 | 87 | 1010.5 |
| 20260509075306 | 37 | 134 | 1.0 | 3.0 | 0.00 | 0.09 | 0.00 | 87 | 1010.7 |
| 20260509074805 | 38 | 68 | 1.0 | 3.0 | 0.00 | 0.09 | 0.00 | 86 | 1010.5 |
| 20260509074304 | 38 | 90 | 1.0 | 2.0 | 0.00 | 0.09 | 0.00 | 86 | 1010.6 |
| 20260509073803 | 39 | 141 | 2.0 | 3.0 | 0.00 | 0.09 | 0.00 | 85 | 1010.7 |
| 20260509073304 | 39 | 84 | 2.0 | 3.0 | 0.00 | 0.09 | 0.00 | 85 | 1010.5 |
| 20260509072803 | 39 | 83 | 2.0 | 5.0 | 0.00 | 0.09 | 0.00 | 85 | 1010.4 |
| 20260509072306 | 39 | 84 | 2.0 | 5.0 | 0.00 | 0.09 | 0.00 | 85 | 1010.5 |
| 20260509071804 | 39 | 123 | 2.0 | 5.0 | 0.00 | 0.09 | 0.00 | 84 | 1010.6 |
| 20260509071305 | 39 | 132 | 3.0 | 5.0 | 0.00 | 0.09 | 0.00 | 84 | 1010.5 |
| 20260509070803 | 39 | 114 | 2.0 | 5.0 | 0.00 | 0.09 | 0.00 | 84 | 1010.5 |
| 20260509070304 | 39 | 90 | 2.0 | 3.0 | 0.00 | 0.09 | 0.00 | 83 | 1010.5 |
| 20260509065805 | 39 | 88 | 2.0 | 5.0 | 0.00 | 0.09 | 0.00 | 83 | 1010.6 |
| 20260509065306 | 40 | 90 | 2.0 | 3.0 | 0.00 | 0.09 | 0.00 | 83 | 1010.7 |
| 20260509064804 | 40 | 105 | 2.0 | 3.0 | 0.00 | 0.09 | 0.00 | 82 | 1010.7 |
| 20260509064304 | 40 | 116 | 2.0 | 3.0 | 0.00 | 0.09 | 0.00 | 82 | 1010.6 |
| 20260509063804 | 40 | 88 | 2.0 | 5.0 | 0.00 | 0.09 | 0.00 | 82 | 1010.7 |
| 20260509063303 | 40 | 108 | 2.0 | 5.0 | 0.00 | 0.09 | 0.00 | 82 | 1010.8 |
| 20260509062803 | 40 | 101 | 2.0 | 5.0 | 0.00 | 0.09 | 0.00 | 83 | 1010.8 |
| 20260509062306 | 40 | 104 | 2.0 | 5.0 | 0.00 | 0.09 | 0.00 | 84 | 1010.9 |
| 20260509061803 | 40 | 69 | 2.0 | 5.0 | 0.00 | 0.09 | 0.00 | 85 | 1010.8 |
| 20260509061305 | 40 | 97 | 3.0 | 3.0 | 0.00 | 0.10 | 0.00 | 86 | 1010.9 |
| 20260509060805 | 40 | 98 | 2.0 | 3.0 | 0.00 | 0.11 | 0.00 | 87 | 1011.0 |
| 20260509060304 | 40 | 110 | 3.0 | 3.0 | 0.00 | 0.12 | 0.00 | 87 | 1011.1 |
| 20260509055306 | 39 | 120 | 2.0 | 3.0 | 0.00 | 0.13 | 0.00 | 89 | 1011.3 |
| 20260509054804 | 39 | 105 | 3.0 | 3.0 | 0.00 | 0.13 | 0.00 | 89 | 1011.4 |
| 20260509054303 | 39 | 102 | 2.0 | 5.0 | 0.00 | 0.13 | 0.00 | 89 | 1011.2 |
| 20260509053805 | 38 | 96 | 2.0 | 3.0 | 0.00 | 0.13 | 0.00 | 89 | 1011.2 |
| 20260509053305 | 38 | 83 | 2.0 | 3.0 | 0.00 | 0.13 | 0.00 | 89 | 1011.3 |
| 20260509052804 | 38 | 84 | 2.0 | 3.0 | 0.00 | 0.13 | 0.00 | 89 | 1011.4 |
| 20260509050804 | 38 | 72 | 2.0 | 3.0 | 0.00 | 0.13 | 0.00 | 89 | 1011.6 |
| 20260509045803 | 38 | 88 | 2.0 | 3.0 | 0.00 | 0.13 | 0.00 | 89 | 1011.7 |
| 20260509045306 | 38 | 106 | 2.0 | 3.0 | 0.00 | 0.13 | 0.00 | 89 | 1011.8 |
| 20260509044804 | 37 | 89 | 2.0 | 3.0 | 0.00 | 0.13 | 0.00 | 88 | 1011.7 |
| 20260509043805 | 38 | 91 | 2.0 | 3.0 | 0.00 | 0.13 | 0.00 | 88 | 1011.6 |
| 20260509042804 | 38 | 74 | 2.0 | 3.0 | 0.00 | 0.13 | 0.00 | 88 | 1011.8 |
| 20260509042306 | 38 | 90 | 2.0 | 3.0 | 0.00 | 0.13 | 0.00 | 88 | 1011.9 |
| 20260509041303 | 38 | 156 | 0.0 | 3.0 | 0.00 | 0.13 | 0.00 | 87 | 1012.0 |
| 20260509040804 | 39 | 87 | 2.0 | 3.0 | 0.00 | 0.13 | 0.00 | 87 | 1011.8 |
| 20260509035804 | 38 | 116 | 1.0 | 2.0 | 0.00 | 0.13 | 0.13 | 86 | 1011.8 |
| 20260509035306 | 39 | 126 | 1.0 | 2.0 | 0.00 | 0.13 | 0.13 | 86 | 1011.8 |
| 20260509034803 | 39 | 155 | 0.0 | 2.0 | 0.00 | 0.13 | 0.13 | 86 | 1011.9 |
| 20260509034304 | 39 | 102 | 1.0 | 2.0 | 0.00 | 0.13 | 0.13 | 85 | 1011.8 |
| 20260509033803 | 39 | 129 | 1.0 | 3.0 | 0.00 | 0.13 | 0.13 | 84 | 1012.0 |
| 20260509033305 | 39 | 106 | 2.0 | 3.0 | 0.00 | 0.13 | 0.13 | 83 | 1011.8 |
| 20260509032804 | 39 | 84 | 2.0 | 3.0 | 0.00 | 0.13 | 0.13 | 83 | 1011.9 |
| 20260509031803 | 40 | 101 | 2.0 | 3.0 | 0.00 | 0.13 | 0.13 | 83 | 1011.6 |
| 20260509031305 | 40 | 109 | 2.0 | 3.0 | 0.00 | 0.13 | 0.13 | 82 | 1011.7 |
| 20260509030804 | 40 | 112 | 1.0 | 3.0 | 0.00 | 0.13 | 0.13 | 82 | 1012.0 |
| 20260509030304 | 40 | 137 | 1.0 | 3.0 | 0.00 | 0.13 | 0.13 | 82 | 1011.9 |
| 20260509025804 | 40 | 77 | 2.0 | 3.0 | 0.00 | 0.13 | 0.13 | 82 | 1011.9 |
| 20260509025306 | 40 | 76 | 2.0 | 3.0 | 0.00 | 0.13 | 0.13 | 82 | 1011.9 |
| 20260509024804 | 41 | 120 | 1.0 | 3.0 | 0.00 | 0.13 | 0.13 | 82 | 1011.9 |
| 20260509023804 | 41 | 118 | 1.0 | 2.0 | 0.00 | 0.13 | 0.13 | 80 | 1012.0 |
| 20260509022804 | 40 | 126 | 1.0 | 2.0 | 0.00 | 0.13 | 0.13 | 79 | 1012.0 |
| 20260509022306 | 41 | 102 | 2.0 | 2.0 | 0.00 | 0.13 | 0.13 | 78 | 1012.0 |
| 20260509021304 | 41 | 101 | 2.0 | 2.0 | 0.00 | 0.13 | 0.13 | 76 | 1012.0 |
| 20260509020804 | 41 | 99 | 1.0 | 3.0 | 0.00 | 0.13 | 0.13 | 75 | 1012.1 |
| 20260509020304 | 42 | 105 | 2.0 | 3.0 | 0.00 | 0.13 | 0.13 | 75 | 1012.1 |
| 20260509015804 | 42 | 93 | 2.0 | 3.0 | 0.00 | 0.13 | 0.13 | 74 | 1012.1 |
| 20260509014805 | 42 | 70 | 2.0 | 3.0 | 0.00 | 0.13 | 0.13 | 72 | 1012.0 |
| 20260509014305 | 43 | 70 | 2.0 | 3.0 | 0.00 | 0.13 | 0.13 | 71 | 1011.8 |
| 20260509013804 | 42 | 83 | 2.0 | 3.0 | 0.00 | 0.13 | 0.13 | 70 | 1011.8 |
| 20260509013305 | 43 | 100 | 2.0 | 2.0 | 0.00 | 0.13 | 0.13 | 70 | 1011.7 |
| 20260509012804 | 43 | 104 | 1.0 | 2.0 | 0.00 | 0.13 | 0.13 | 69 | 1011.6 |
| 20260509012306 | 43 | 90 | 2.0 | 2.0 | 0.00 | 0.13 | 0.13 | 70 | 1011.6 |
| 20260509011804 | 44 | 74 | 1.0 | 2.0 | 0.00 | 0.13 | 0.13 | 70 | 1011.5 |
| 20260509011304 | 44 | 85 | 2.0 | 3.0 | 0.00 | 0.13 | 0.13 | 69 | 1011.5 |
| 20260509010803 | 45 | 90 | 2.0 | 3.0 | 0.00 | 0.13 | 0.13 | 68 | 1011.4 |
| 20260509005802 | 45 | 103 | 1.0 | 3.0 | 0.00 | 0.13 | 0.13 | 65 | 1011.4 |
| 20260509004802 | 46 | 95 | 1.0 | 3.0 | 0.00 | 0.13 | 0.13 | 61 | 1011.1 |
| 20260509004302 | 47 | 108 | 2.0 | 3.0 | 0.00 | 0.13 | 0.13 | 58 | 1011.0 |
| 20260509003803 | 47 | 110 | 2.0 | 3.0 | 0.00 | 0.13 | 0.13 | 57 | 1011.1 |
| 20260509003303 | 48 | 95 | 2.0 | 2.0 | 0.00 | 0.13 | 0.13 | 56 | 1011.2 |
| 20260509002802 | 48 | 81 | 1.0 | 2.0 | 0.00 | 0.13 | 0.13 | 56 | 1011.1 |
| 20260509002306 | 49 | 167 | 0.0 | 1.0 | 0.00 | 0.13 | 0.13 | 55 | 1011.0 |
| 20260509001303 | 50 | 111 | 1.0 | 3.0 | 0.00 | 0.13 | 0.13 | 47 | 1010.8 |
| 20260509000803 | 51 | 86 | 3.0 | 3.0 | 0.00 | 0.13 | 0.13 | 45 | 1010.9 |
| 20260509000304 | 52 | 74 | 2.0 | 3.0 | 0.00 | 0.13 | 0.13 | 41 | 1010.9 |
| 20260508235804 | 52 | 61 | 2.0 | 3.0 | 0.00 | 0.13 | 0.13 | 39 | 1010.9 |
| 20260508235306 | 53 | 50 | 1.0 | 5.0 | 0.00 | 0.13 | 0.13 | 39 | 1010.9 |
| 20260508234803 | 53 | 80 | 3.0 | 5.0 | 0.00 | 0.13 | 0.13 | 39 | 1010.8 |
| 20260508234304 | 53 | 71 | 3.0 | 3.0 | 0.00 | 0.13 | 0.13 | 36 | 1010.7 |
| 20260508233803 | 53 | 74 | 2.0 | 3.0 | 0.00 | 0.13 | 0.13 | 37 | 1010.7 |
| 20260508233303 | 54 | 69 | 2.0 | 3.0 | 0.00 | 0.13 | 0.13 | 37 | 1010.7 |
| 20260508232802 | 54 | 50 | 1.0 | 3.0 | 0.00 | 0.13 | 0.13 | 35 | 1010.8 |
| 20260508231802 | 55 | 62 | 2.0 | 3.0 | 0.00 | 0.13 | 0.13 | 35 | 1010.6 |
| 20260508231302 | 56 | 284 | 2.0 | 3.0 | 0.00 | 0.13 | 0.13 | 34 | 1010.6 |
| 20260508230802 | 57 | 272 | 1.0 | 7.0 | 0.00 | 0.13 | 0.13 | 33 | 1010.7 |
| 20260508230302 | 56 | 198 | 6.0 | 7.0 | 0.00 | 0.13 | 0.13 | 33 | 1010.8 |
| 20260508225805 | 57 | 327 | 2.0 | 6.0 | 0.00 | 0.13 | 0.13 | 32 | 1010.6 |
| 20260508224803 | 57 | 280 | 2.0 | 9.0 | 0.00 | 0.13 | 0.13 | 33 | 1010.8 |
| 20260508224302 | 56 | 261 | 5.0 | 8.0 | 0.00 | 0.13 | 0.13 | 33 | 1010.7 |
| 20260508223804 | 57 | 224 | 1.0 | 6.0 | 0.00 | 0.13 | 0.13 | 32 | 1010.8 |
| 20260508222306 | 58 | 245 | 3.0 | 8.0 | 0.00 | 0.13 | 0.13 | 32 | 1010.7 |
| 20260508221804 | 56 | 51 | 4.0 | 9.0 | 0.00 | 0.13 | 0.13 | 31 | 1010.8 |
| 20260508220802 | 57 | 13 | 3.0 | 9.0 | 0.00 | 0.13 | 0.13 | 30 | 1010.8 |
| 20260508220304 | 57 | 257 | 3.0 | 10.0 | 0.00 | 0.13 | 0.13 | 27 | 1010.9 |
| 20260508215804 | 57 | 281 | 5.0 | 16.0 | 0.00 | 0.13 | 0.13 | 33 | 1010.9 |
| 20260508215306 | 57 | 220 | 3.0 | 12.0 | 0.00 | 0.13 | 0.13 | 37 | 1011.1 |
| 20260508214803 | 57 | 268 | 6.0 | 14.0 | 0.00 | 0.13 | 0.13 | 37 | 1011.1 |
| 20260508214303 | 56 | 275 | 5.0 | 17.0 | 0.00 | 0.13 | 0.13 | 39 | 1011.1 |
| 20260508213803 | 57 | 220 | 6.0 | 10.0 | 0.00 | 0.13 | 0.13 | 36 | 1011.1 |
| 20260508213304 | 57 | 229 | 5.0 | 12.0 | 0.00 | 0.13 | 0.13 | 39 | 1011.0 |
| 20260508212802 | 56 | 276 | 7.0 | 17.0 | 0.00 | 0.13 | 0.13 | 38 | 1011.1 |
| 20260508211302 | 55 | 240 | 5.0 | 9.0 | 0.00 | 0.13 | 0.13 | 41 | 1011.0 |
| 20260508210803 | 55 | 231 | 3.0 | 12.0 | 0.00 | 0.13 | 0.13 | 41 | 1011.1 |
| 20260508210302 | 56 | 261 | 6.0 | 15.0 | 0.00 | 0.13 | 0.13 | 40 | 1011.0 |
| 20260508205802 | 56 | 216 | 6.0 | 12.0 | 0.00 | 0.13 | 0.13 | 40 | 1011.1 |
| 20260508205306 | 56 | 218 | 6.0 | 17.0 | 0.00 | 0.13 | 0.13 | 40 | 1011.2 |
| 20260508204302 | 56 | 252 | 10.0 | 17.0 | 0.00 | 0.13 | 0.13 | 42 | 1011.2 |
| 20260508203804 | 56 | 273 | 8.0 | 17.0 | 0.00 | 0.13 | 0.13 | 42 | 1011.2 |
| 20260508203303 | 55 | 308 | 2.0 | 9.0 | 0.00 | 0.13 | 0.13 | 43 | 1011.2 |
| 20260508202802 | 53 | 294 | 4.0 | 12.0 | 0.00 | 0.13 | 0.13 | 44 | 1011.1 |
| 20260508202306 | 55 | 254 | 7.0 | 18.0 | 0.00 | 0.13 | 0.13 | 45 | 1011.2 |
| 20260508201803 | 54 | 233 | 9.0 | 18.0 | 0.00 | 0.13 | 0.13 | 45 | 1011.1 |
| 20260508201303 | 54 | 209 | 12.0 | 20.0 | 0.00 | 0.13 | 0.13 | 43 | 1011.1 |
| 20260508200804 | 55 | 242 | 6.0 | 15.0 | 0.00 | 0.13 | 0.13 | 42 | 1011.3 |
| 20260508200302 | 55 | 262 | 6.0 | 20.0 | 0.00 | 0.13 | 0.13 | 44 | 1011.4 |
| 20260508195804 | 54 | 248 | 7.0 | 20.0 | 0.00 | 0.13 | 0.13 | 45 | 1011.5 |
| 20260508195306 | 55 | 256 | 5.0 | 8.0 | 0.00 | 0.13 | 0.13 | 48 | 1011.6 |
| 20260508193802 | 52 | 287 | 7.0 | 18.0 | 0.00 | 0.13 | 0.13 | 48 | 1011.7 |
| 20260508193303 | 54 | 217 | 5.0 | 14.0 | 0.00 | 0.13 | 0.13 | 48 | 1011.6 |
| 20260508192803 | 55 | 212 | 5.0 | 13.0 | 0.00 | 0.13 | 0.13 | 51 | 1011.4 |
| 20260508192306 | 53 | 278 | 8.0 | 17.0 | 0.00 | 0.13 | 0.13 | 52 | 1011.5 |
| 20260508191802 | 54 | 229 | 13.0 | 17.0 | 0.00 | 0.13 | 0.13 | 51 | 1011.6 |
| 20260508191302 | 53 | 234 | 7.0 | 17.0 | 0.00 | 0.13 | 0.13 | 54 | 1011.8 |
| 20260508190803 | 52 | 223 | 9.0 | 13.0 | 0.00 | 0.13 | 0.13 | 55 | 1011.8 |
| 20260508185803 | 52 | 229 | 10.0 | 22.0 | 0.00 | 0.13 | 0.13 | 55 | 1012.0 |
| 20260508185306 | 52 | 266 | 10.0 | 16.0 | 0.00 | 0.13 | 0.13 | 56 | 1011.9 |
| 20260508184803 | 52 | 232 | 6.0 | 20.0 | 0.00 | 0.13 | 0.13 | 55 | 1012.0 |
| 20260508184303 | 51 | 270 | 11.0 | 15.0 | 0.00 | 0.13 | 0.13 | 60 | 1012.0 |
| 20260508183804 | 52 | 198 | 8.0 | 13.0 | 0.00 | 0.13 | 0.13 | 59 | 1012.1 |
| 20260508183303 | 52 | 284 | 8.0 | 17.0 | 0.00 | 0.13 | 0.13 | 60 | 1012.2 |
| 20260508182802 | 51 | 303 | 7.0 | 20.0 | 0.00 | 0.13 | 0.13 | 57 | 1012.1 |
| 20260508182306 | 50 | 236 | 13.0 | 20.0 | 0.00 | 0.13 | 0.13 | 60 | 1012.2 |
| 20260508181303 | 51 | 286 | 6.0 | 17.0 | 0.00 | 0.13 | 0.13 | 59 | 1012.4 |
| 20260508180803 | 50 | 263 | 9.0 | 17.0 | 0.00 | 0.13 | 0.13 | 61 | 1012.4 |
| 20260508180302 | 49 | 240 | 7.0 | 21.0 | 0.00 | 0.13 | 0.13 | 62 | 1012.2 |
| 20260508175305 | 50 | 214 | 7.0 | 20.0 | 0.00 | 0.13 | 0.13 | 60 | 1012.4 |
| 20260508174802 | 51 | 220 | 9.0 | 20.0 | 0.00 | 0.13 | 0.13 | 66 | 1012.1 |
| 20260508173302 | 49 | 248 | 7.0 | 14.0 | 0.00 | 0.13 | 0.13 | 62 | 1012.4 |
| 20260508172803 | 50 | 204 | 7.0 | 18.0 | 0.00 | 0.13 | 0.13 | 66 | 1012.3 |
| 20260508172306 | 50 | 214 | 8.0 | 18.0 | 0.00 | 0.13 | 0.13 | 67 | 1012.4 |
| 20260508171802 | 50 | 225 | 9.0 | 15.0 | 0.00 | 0.13 | 0.13 | 62 | 1012.4 |
| 20260508171303 | 52 | 267 | 6.0 | 15.0 | 0.00 | 0.13 | 0.13 | 65 | 1012.5 |
| 20260508170803 | 50 | 228 | 7.0 | 13.0 | 0.00 | 0.13 | 0.13 | 61 | 1012.3 |
| 20260508165803 | 49 | 105 | 2.0 | 6.0 | 0.00 | 0.13 | 0.13 | 69 | 1012.4 |
| 20260508165306 | 48 | 242 | 3.0 | 6.0 | 0.00 | 0.13 | 0.13 | 68 | 1012.6 |
| 20260508164302 | 48 | 348 | 1.0 | 5.0 | 0.00 | 0.13 | 0.13 | 69 | 1012.6 |
| 20260508163802 | 48 | 326 | 1.0 | 6.0 | 0.00 | 0.13 | 0.13 | 71 | 1012.7 |
| 20260508163302 | 49 | 330 | 2.0 | 6.0 | 0.00 | 0.13 | 0.13 | 74 | 1012.7 |
| 20260508162804 | 48 | 225 | 2.0 | 8.0 | 0.01 | 0.13 | 0.13 | 76 | 1012.7 |
| 20260508162306 | 47 | 276 | 4.0 | 8.0 | 0.02 | 0.13 | 0.13 | 74 | 1012.8 |
| 20260508161303 | 46 | 262 | 6.0 | 9.0 | 0.02 | 0.13 | 0.13 | 83 | 1012.9 |
| 20260508160803 | 45 | 271 | 3.0 | 7.0 | 0.03 | 0.13 | 0.13 | 85 | 1012.8 |
| 20260508160304 | 45 | 227 | 3.0 | 7.0 | 0.04 | 0.13 | 0.13 | 86 | 1012.7 |
| 20260508155804 | 43 | 294 | 2.0 | 5.0 | 0.04 | 0.13 | 0.13 | 87 | 1012.9 |
| 20260508155305 | 43 | 77 | 2.0 | 5.0 | 0.04 | 0.13 | 0.13 | 89 | 1012.7 |
| 20260508154303 | 42 | 45 | 2.0 | 7.0 | 0.04 | 0.13 | 0.13 | 89 | 1013.0 |
| 20260508153803 | 43 | 336 | 4.0 | 7.0 | 0.04 | 0.12 | 0.12 | 89 | 1012.9 |
| 20260508152803 | 42 | 358 | 1.0 | 8.0 | 0.03 | 0.12 | 0.12 | 89 | 1012.9 |
| 20260508151803 | 43 | 252 | 2.0 | 7.0 | 0.03 | 0.11 | 0.11 | 87 | 1012.9 |
| 20260508150803 | 43 | 255 | 5.0 | 14.0 | 0.02 | 0.09 | 0.09 | 86 | 1012.9 |